Weather History for Pinedale, WY

Change the Weather History Date:

Monday, June 24, 2013

  Actual Average (KBPI) Record (KBPI)
Temperature  
Mean Temperature 59 °F 58 °F  
Max Temperature 77 °F 75 °F 91 °F (2012)
Min Temperature 41 °F 40 °F 27 °F (1976)
Degree Days  
Heating Degree Days 6 8  
Month to date heating degree days 264  
Since 1 June heating degree days 264  
Since 1 July heating degree days 10390  
Cooling Degree Days 0 0  
Month to date cooling degree days 0  
Year to date cooling degree days 0  
Since 1 June cooling degree days 0  
Growing Degree Days 9 (Base 50)    
Moisture  
Dew Point 28 °F    
Average Humidity 36    
Maximum Humidity 82    
Minimum Humidity 12    
Precipitation  
Precipitation 0.00 in 0.02 in 0.44 in (2003)
Month to date precipitation 0.67  
Year to date precipitation 3.14  
Sea Level Pressure  
Sea Level Pressure 29.93 in    
Wind  
Wind Speed 8 mph (WSW)    
Max Wind Speed 24 mph    
Max Gust Speed 39 mph    
Visibility 10 miles    
Events Rain    
T = Trace of Precipitation, MM = Missing Value Source: NWS Daily Summary

Daily Weather History Graph

Daily Weather History Graph

Search for Another Location

Airport:

Trip Planner

Search our weather history database for the weather conditions in past years. The results will help you decide how hot, cold, wet, or windy it might be!

Date:

Astronomy

Jun. 24, 2013 Rise Set
Actual Time 5:41 AM MDT 9:01 PM MDT
Civil Twilight 5:06 AM MDT 9:36 PM MDT
Nautical Twilight 4:20 AM MDT 10:22 PM MDT
Astronomical Twilight 3:24 AM MDT 11:18 PM MDT
Moon 10:03 PM MDT (6/24) 7:16 AM MDT (6/24)
Length of Visible Light 16h 30m
Length of Day
15h 19m
Full, 97% of the Moon is Illuminated
Jun 24
Full
Jun 29
Last Quarter
Jul 8
New
Jul 15
First Quarter
Jul 22
Full

Hourly Weather History & Observations

Time (MDT) Temp. Windchill Dew Point Humidity Pressure Visibility Wind Dir Wind Speed Gust Speed Precip Events Conditions
12:15 AM 51.8 °F - 28.4 °F 41% 29.96 in 10.0 mi ENE 8.1 mph - N/A   Mostly Cloudy
12:35 AM 53.6 °F - 28.4 °F 38% 29.95 in 10.0 mi Calm Calm - N/A   Overcast
12:55 AM 51.8 °F - 26.6 °F 38% 29.95 in 10.0 mi Calm Calm - N/A   Scattered Clouds
1:15 AM 50.0 °F - 30.2 °F 47% 29.95 in 10.0 mi NW 6.9 mph - N/A   Clear
1:35 AM 46.4 °F 43.5 °F 28.4 °F 50% 29.95 in 10.0 mi West 5.8 mph - N/A   Clear
1:55 AM 46.4 °F 43.5 °F 28.4 °F 50% 29.95 in 10.0 mi West 5.8 mph - N/A   Clear
2:15 AM 46.4 °F 44.3 °F 28.4 °F 50% 29.93 in 10.0 mi WNW 4.6 mph - N/A   Mostly Cloudy
2:35 AM 44.6 °F 40.7 °F 30.2 °F 57% 29.93 in 10.0 mi WNW 6.9 mph - N/A   Overcast
2:55 AM 42.8 °F 40.1 °F 30.2 °F 61% 29.93 in 10.0 mi NW 4.6 mph - N/A   Scattered Clouds
3:15 AM 44.6 °F 41.4 °F 32.0 °F 61% 29.93 in 10.0 mi NW 5.8 mph - N/A   Clear
3:35 AM 42.8 °F 40.1 °F 30.2 °F 61% 29.93 in 10.0 mi NW 4.6 mph - N/A   Scattered Clouds
3:55 AM 42.8 °F 39.3 °F 32.0 °F 66% 29.91 in 10.0 mi NNW 5.8 mph - N/A   Mostly Cloudy
4:15 AM 41.0 °F 38.0 °F 32.0 °F 70% 29.92 in 10.0 mi WSW 4.6 mph - N/A   Scattered Clouds
4:35 AM 42.8 °F 41.1 °F 32.0 °F 66% 29.91 in 10.0 mi West 3.5 mph - N/A   Scattered Clouds
4:55 AM 42.8 °F 39.3 °F 32.0 °F 66% 29.91 in 10.0 mi WNW 5.8 mph - N/A   Scattered Clouds
5:15 AM 41.0 °F 37.1 °F 32.0 °F 70% 29.92 in 10.0 mi NW 5.8 mph - N/A   Scattered Clouds
5:35 AM 41.0 °F 39.0 °F 32.0 °F 70% 29.92 in 10.0 mi West 3.5 mph - N/A   Scattered Clouds
5:55 AM 42.8 °F 41.1 °F 32.0 °F 66% 29.92 in 10.0 mi WNW 3.5 mph - N/A   Clear
6:15 AM 42.8 °F - 32.0 °F 66% 29.93 in 10.0 mi Calm Calm - N/A   Mostly Cloudy
6:35 AM 41.0 °F 38.0 °F 32.0 °F 70% 29.93 in 10.0 mi West 4.6 mph - N/A   Scattered Clouds
6:55 AM 42.8 °F 39.3 °F 33.8 °F 70% 29.95 in 10.0 mi NW 5.8 mph - N/A   Scattered Clouds
7:15 AM 46.4 °F 45.2 °F 33.8 °F 62% 29.95 in 10.0 mi WNW 3.5 mph - N/A   Scattered Clouds
7:35 AM 46.4 °F 45.2 °F 35.6 °F 66% 29.95 in 10.0 mi NW 3.5 mph - N/A   Clear
7:55 AM 50.0 °F - 32.0 °F 50% 29.95 in 10.0 mi Calm Calm - N/A   Clear
8:15 AM 55.4 °F - 33.8 °F 44% 29.95 in 10.0 mi Calm Calm - N/A   Clear
8:35 AM 59.0 °F - 32.0 °F 36% 29.95 in 10.0 mi Calm Calm - N/A   Clear
8:55 AM 60.8 °F - 32.0 °F 34% 29.95 in 10.0 mi East 3.5 mph - N/A   Clear
9:15 AM 62.6 °F - 30.2 °F 30% 29.94 in 10.0 mi East 3.5 mph - N/A   Clear
9:35 AM 64.4 °F - 28.4 °F 26% 29.93 in 10.0 mi ESE 9.2 mph - N/A   Clear
9:55 AM 68.0 °F - 28.4 °F 23% 29.93 in 10.0 mi ESE 9.2 mph - N/A   Clear
10:15 AM 69.8 °F - 26.6 °F 20% 29.92 in 10.0 mi East 11.5 mph - N/A   Clear
10:35 AM 71.6 °F - 26.6 °F 19% 29.92 in 10.0 mi ESE 12.7 mph - N/A   Scattered Clouds
10:55 AM 73.4 °F - 23.0 °F 15% 29.92 in 10.0 mi SSE 12.7 mph 18.4 mph N/A   Scattered Clouds
11:15 AM 69.8 °F - 23.0 °F 17% 29.92 in 10.0 mi South 10.4 mph - N/A   Mostly Cloudy
11:35 AM 69.8 °F - 23.0 °F 17% 29.92 in 10.0 mi SSW 10.4 mph - N/A   Scattered Clouds
11:55 AM 73.4 °F - 23.0 °F 15% 29.92 in 10.0 mi South 11.5 mph 17.3 mph N/A   Scattered Clouds
12:15 PM 75.2 °F - 24.8 °F 15% 29.91 in 10.0 mi SSW 9.2 mph 18.4 mph N/A   Mostly Cloudy
12:35 PM 75.2 °F - 23.0 °F 14% 29.90 in 10.0 mi SSW 18.4 mph 28.8 mph N/A   Scattered Clouds
12:55 PM 73.4 °F - 23.0 °F 15% 29.89 in 10.0 mi South 19.6 mph 26.5 mph N/A   Scattered Clouds
1:15 PM 77.0 °F - 23.0 °F 13% 29.89 in 10.0 mi SSW 17.3 mph 26.5 mph N/A   Scattered Clouds
1:35 PM 77.0 °F - 19.4 °F 12% 29.88 in 10.0 mi SSW 23.0 mph 32.2 mph N/A   Scattered Clouds
1:55 PM 77.0 °F - 19.4 °F 12% 29.88 in 10.0 mi SSW 24.2 mph 38.0 mph N/A   Clear
2:15 PM 75.2 °F - 21.2 °F 13% 29.88 in 10.0 mi WSW 15.0 mph 31.1 mph N/A   Clear
2:35 PM 77.0 °F - 23.0 °F 13% 29.87 in 10.0 mi WSW 17.3 mph 32.2 mph N/A   Clear
2:55 PM 77.0 °F - 21.2 °F 12% 29.88 in 10.0 mi SW 19.6 mph 29.9 mph N/A   Scattered Clouds
3:15 PM 77.0 °F - 21.2 °F 12% 29.88 in 10.0 mi SW 13.8 mph 27.6 mph N/A   Scattered Clouds
3:35 PM 75.2 °F - 21.2 °F 13% 29.87 in 10.0 mi SW 23.0 mph 29.9 mph N/A   Scattered Clouds
3:55 PM 75.2 °F - 21.2 °F 13% 29.87 in 10.0 mi SSW 17.3 mph 28.8 mph N/A   Clear
4:15 PM 73.4 °F - 23.0 °F 15% 29.88 in 10.0 mi SW 16.1 mph 26.5 mph N/A   Clear
4:35 PM 73.4 °F - 24.8 °F 16% 29.88 in 10.0 mi SW 19.6 mph 26.5 mph N/A   Clear
4:55 PM 75.2 °F - 24.8 °F 15% 29.88 in 10.0 mi WSW 12.7 mph 20.7 mph N/A   Clear
5:15 PM 73.4 °F - 24.8 °F 16% 29.88 in 10.0 mi SSW 15.0 mph 25.3 mph N/A   Scattered Clouds
5:35 PM 71.6 °F - 24.8 °F 17% 29.88 in 10.0 mi SW 11.5 mph 20.7 mph N/A   Scattered Clouds
5:55 PM 71.6 °F - 24.8 °F 17% 29.88 in 10.0 mi SW 15.0 mph 25.3 mph N/A   Scattered Clouds
6:15 PM 71.6 °F - 24.8 °F 17% 29.88 in 10.0 mi WSW 19.6 mph 25.3 mph N/A   Scattered Clouds
6:35 PM 71.6 °F - 26.6 °F 19% 29.88 in 10.0 mi WSW 11.5 mph 21.9 mph N/A   Clear
6:55 PM 69.8 °F - 23.0 °F 17% 29.88 in 10.0 mi SW 18.4 mph 23.0 mph N/A   Clear
7:15 PM 69.8 °F - 26.6 °F 20% 29.89 in 10.0 mi WSW 21.9 mph 27.6 mph N/A   Scattered Clouds
7:35 PM 68.0 °F - 28.4 °F 23% 29.91 in 10.0 mi WSW 20.7 mph 27.6 mph N/A   Mostly Cloudy
7:55 PM 66.2 °F - 28.4 °F 24% 29.92 in 10.0 mi SW 17.3 mph 39.1 mph N/A   Overcast
8:15 PM 66.2 °F - 28.4 °F 24% 29.93 in 10.0 mi WSW 11.5 mph 21.9 mph N/A   Overcast
8:35 PM 64.4 °F - 28.4 °F 26% 29.93 in 10.0 mi SW 12.7 mph 19.6 mph N/A   Overcast
8:55 PM 64.4 °F - 28.4 °F 26% 29.93 in 10.0 mi WSW 13.8 mph 19.6 mph N/A   Overcast
9:15 PM 64.4 °F - 30.2 °F 28% 29.95 in 10.0 mi WSW 13.8 mph 24.2 mph N/A   Overcast
9:35 PM 62.6 °F - 30.2 °F 30% 29.97 in 10.0 mi WSW 18.4 mph - N/A   Overcast
9:55 PM 60.8 °F - 32.0 °F 34% 29.99 in 10.0 mi West 11.5 mph 24.2 mph N/A   Overcast
10:15 PM 60.8 °F - 32.0 °F 34% 30.00 in 10.0 mi West 6.9 mph - N/A   Overcast
10:35 PM 59.0 °F - 33.8 °F 39% 30.01 in 10.0 mi WSW 8.1 mph - N/A   Overcast
10:55 PM 59.0 °F - 33.8 °F 39% 30.01 in 10.0 mi WSW 10.4 mph - N/A   Overcast
11:15 PM 57.2 °F - 41.0 °F 55% 30.03 in 10.0 mi West 18.4 mph 25.3 mph N/A   Drizzle
11:35 PM 51.8 °F - 44.6 °F 76% 30.05 in 10.0 mi WNW 11.5 mph - N/A Rain Light Rain
11:55 PM 51.8 °F - 46.4 °F 82% 30.05 in 10.0 mi NW 6.9 mph - N/A Rain Light Rain